Time,TemperatureF,DewpointF,PressureIn,WindDirection,WindDirectionDegrees,WindSpeedMPH,WindSpeedGustMPH,Humidity,HourlyPrecipIn,Conditions,Clouds,dailyrainin,SoftwareType,DateUTC
2013-02-14 00:00:00,33.4,27.5,29.23,South,180,0.0,0.0,79,0.00,,,0.00,WUHU216HW,2013-02-14 05:00:00,
2013-02-14 00:01:00,33.4,27.5,29.23,South,180,0.0,0.0,79,0.00,,,0.00,WUHU216HW,2013-02-14 05:01:00,
2013-02-14 00:06:00,33.4,27.5,29.23,South,180,0.0,0.0,79,0.00,,,0.00,WUHU216HW,2013-02-14 05:06:00,
2013-02-14 00:11:00,33.2,27.5,29.23,South,180,0.0,0.0,79,0.00,,,0.00,WUHU216HW,2013-02-14 05:11:00,
2013-02-14 00:16:00,33.2,27.7,29.23,South,180,0.0,0.0,80,0.00,,,0.00,WUHU216HW,2013-02-14 05:16:00,
2013-02-14 00:21:00,33.2,27.7,29.23,South,180,0.0,0.0,80,0.00,,,0.00,WUHU216HW,2013-02-14 05:21:00,
2013-02-14 00:26:00,33.0,27.5,29.23,South,180,0.0,0.0,80,0.00,,,0.00,WUHU216HW,2013-02-14 05:26:00,
2013-02-14 00:31:00,33.0,27.5,29.23,South,180,0.0,0.0,80,0.00,,,0.00,WUHU216HW,2013-02-14 05:31:00,
2013-02-14 00:36:00,32.9,27.4,29.24,South,180,0.0,0.0,80,0.00,,,0.00,WUHU216HW,2013-02-14 05:36:00,
2013-02-14 00:41:00,32.9,27.6,29.23,South,180,0.0,0.0,81,0.00,,,0.00,WUHU216HW,2013-02-14 05:41:00,
2013-02-14 00:46:00,32.7,27.5,29.23,South,180,0.0,0.0,81,0.00,,,0.00,WUHU216HW,2013-02-14 05:46:00,
2013-02-14 00:51:00,32.7,27.5,29.23,South,180,0.0,0.0,81,0.00,,,0.00,WUHU216HW,2013-02-14 05:51:00,
2013-02-14 00:56:00,32.7,27.5,29.24,South,180,0.0,0.0,81,0.00,,,0.00,WUHU216HW,2013-02-14 05:56:00,
2013-02-14 01:01:00,32.5,27.3,29.24,South,180,0.0,0.0,81,0.00,,,0.00,WUHU216HW,2013-02-14 06:01:00,
2013-02-14 01:06:00,32.5,27.3,29.24,South,180,0.0,0.0,81,0.00,,,0.00,WUHU216HW,2013-02-14 06:06:00,
2013-02-14 01:12:00,32.3,27.2,29.24,South,180,0.0,0.0,81,0.00,,,0.00,WUHU216HW,2013-02-14 06:12:00,
2013-02-14 01:17:00,32.1,27.3,29.24,South,180,0.0,0.0,82,0.00,,,0.00,WUHU216HW,2013-02-14 06:17:00,
2013-02-14 01:22:00,32.1,27.3,29.24,South,180,0.0,0.0,82,0.00,,,0.00,WUHU216HW,2013-02-14 06:22:00,
2013-02-14 01:27:00,31.8,26.7,29.24,South,180,0.0,0.0,81,0.00,,,0.00,WUHU216HW,2013-02-14 06:27:00,
2013-02-14 01:32:00,31.8,26.7,29.25,South,180,0.0,0.0,81,0.00,,,0.00,WUHU216HW,2013-02-14 06:32:00,
2013-02-14 01:37:00,31.8,26.7,29.25,South,180,0.0,0.0,81,0.00,,,0.00,WUHU216HW,2013-02-14 06:37:00,
2013-02-14 01:42:00,31.8,26.9,29.26,South,180,0.0,0.0,82,0.00,,,0.00,WUHU216HW,2013-02-14 06:42:00,
2013-02-14 01:47:00,31.8,26.9,29.26,South,180,0.0,0.0,82,0.00,,,0.00,WUHU216HW,2013-02-14 06:47:00,
2013-02-14 01:52:00,31.8,26.9,29.26,South,180,0.0,0.0,82,0.00,,,0.00,WUHU216HW,2013-02-14 06:52:00,
2013-02-14 01:57:00,31.8,26.9,29.26,South,180,0.0,0.0,82,0.00,,,0.00,WUHU216HW,2013-02-14 06:57:00,
2013-02-14 02:02:00,31.8,26.9,29.26,South,180,0.0,0.0,82,0.00,,,0.00,WUHU216HW,2013-02-14 07:02:00,
2013-02-14 02:07:00,31.8,27.2,29.26,South,180,0.0,0.0,83,0.00,,,0.00,WUHU216HW,2013-02-14 07:07:00,
2013-02-14 02:12:00,31.8,27.2,29.27,South,180,0.0,0.0,83,0.00,,,0.00,WUHU216HW,2013-02-14 07:12:00,
2013-02-14 02:17:00,31.8,27.2,29.27,South,180,0.0,0.0,83,0.00,,,0.00,WUHU216HW,2013-02-14 07:17:00,
2013-02-14 02:22:00,31.8,27.2,29.27,South,180,0.0,0.0,83,0.00,,,0.00,WUHU216HW,2013-02-14 07:22:00,
2013-02-14 02:27:00,31.8,27.2,29.28,South,180,0.0,0.0,83,0.00,,,0.00,WUHU216HW,2013-02-14 07:27:00,
2013-02-14 02:32:00,31.8,27.2,29.28,South,180,0.0,0.0,83,0.00,,,0.00,WUHU216HW,2013-02-14 07:32:00,
2013-02-14 02:37:00,31.8,27.2,29.28,South,180,0.0,0.0,83,0.00,,,0.00,WUHU216HW,2013-02-14 07:37:00,
2013-02-14 02:42:00,31.8,27.2,29.28,South,180,0.0,0.0,83,0.00,,,0.00,WUHU216HW,2013-02-14 07:42:00,
2013-02-14 02:48:00,32.0,27.4,29.28,South,180,0.0,0.0,83,0.00,,,0.00,WUHU216HW,2013-02-14 07:48:00,
2013-02-14 02:53:00,31.8,27.2,29.28,South,180,0.0,0.0,83,0.00,,,0.00,WUHU216HW,2013-02-14 07:53:00,
2013-02-14 02:58:00,32.1,27.6,29.28,South,180,0.0,0.0,83,0.00,,,0.00,WUHU216HW,2013-02-14 07:58:00,
2013-02-14 03:03:00,32.1,27.6,29.28,South,180,0.0,0.0,83,0.00,,,0.00,WUHU216HW,2013-02-14 08:03:00,
2013-02-14 03:08:00,32.0,27.4,29.28,South,180,0.0,0.0,83,0.00,,,0.00,WUHU216HW,2013-02-14 08:08:00,
2013-02-14 03:13:00,32.1,27.6,29.29,South,180,0.0,0.0,83,0.00,,,0.00,WUHU216HW,2013-02-14 08:13:00,
2013-02-14 03:18:00,31.8,27.2,29.29,South,180,0.0,0.0,83,0.00,,,0.00,WUHU216HW,2013-02-14 08:18:00,
2013-02-14 03:23:00,31.8,27.2,29.29,South,180,0.0,0.0,83,0.00,,,0.00,WUHU216HW,2013-02-14 08:23:00,
2013-02-14 03:28:00,31.8,27.2,29.29,South,180,0.0,0.0,83,0.00,,,0.00,WUHU216HW,2013-02-14 08:28:00,